www.pogodaiklimat.ru
ПОГОДА в Тересполе
Время
(UTC), дата
10 22.11
11 22.11
12 22.11
13 22.11
14 22.11
15 22.11
16 22.11
17 22.11
18 22.11
19 22.11
20 22.11
21 22.11
22 22.11
23 22.11
00 23.11
01 23.11
02 23.11
03 23.11
04 23.11
05 23.11
06 23.11
07 23.11
08 23.11
09 23.11
10 23.11
11 23.11
12 23.11
13 23.11
14 23.11
15 23.11
16 23.11
17 23.11
18 23.11
19 23.11
20 23.11
21 23.11
22 23.11
23 23.11
00 24.11
01 24.11
02 24.11
03 24.11
04 24.11
05 24.11
06 24.11
07 24.11
08 24.11
09 24.11
10 24.11
11 24.11
12 24.11
13 24.11
14 24.11
15 24.11
16 24.11
17 24.11
18 24.11
19 24.11
20 24.11
21 24.11
22 24.11
23 24.11
00 25.11
01 25.11
02 25.11
03 25.11
04 25.11
05 25.11
06 25.11
07 25.11
08 25.11
09 25.11
10 25.11
11 25.11
12 25.11
13 25.11
14 25.11
15 25.11
16 25.11
17 25.11
18 25.11
19 25.11
20 25.11
21 25.11
22 25.11
23 25.11
00 26.11
01 26.11
02 26.11
03 26.11
04 26.11
05 26.11
06 26.11
07 26.11
08 26.11
10 26.11
11 26.11
12 26.11
13 26.11
14 26.11
15 26.11
16 26.11
17 26.11
18 26.11
19 26.11
20 26.11
21 26.11
22 26.11
23 26.11
00 27.11
01 27.11
02 27.11
03 27.11
04 27.11
05 27.11
06 27.11
07 27.11
08 27.11
09 27.11
10 27.11
11 27.11
12 27.11
13 27.11
14 27.11
15 27.11
16 27.11
17 27.11
18 27.11
19 27.11
20 27.11
21 27.11
22 27.11
23 27.11
00 28.11
01 28.11
02 28.11
03 28.11
04 28.11
05 28.11
06 28.11
07 28.11
08 28.11
09 28.11
10 28.11
11 28.11
12 28.11
13 28.11
14 28.11
15 28.11
16 28.11
17 28.11
18 28.11
19 28.11
20 28.11
21 28.11
22 28.11
23 28.11
00 29.11
01 29.11
02 29.11
03 29.11
04 29.11
05 29.11
06 29.11
07 29.11
08 29.11
09 29.11
10 29.11
Ветер
(напр.,м/с)
Видим. Явления Облачность Т
(С)
Тd
(С)
f
(%)
Тe
(С)
Тes
(С)
Комфортность P
(гПа)
Po
(гПа)
Тmin
(С)
Tmax
(С)
R
(мм)
R24
(мм)
S
(см)
ЮЗ 5-10
{10}
11 км 10/10 600 м
[Sc]
+3.7 -0.1 76 -1 -1 1022.2 1005.0
ЮЗ 4-10
{15}
12 км 10/10 600 м
[Sc]
+3.6 +0.5 80 -1 -1 1021.6 1004.4
ЮЗ 4-10
{15}
16 км {дождь} 10/10 600 м
[Sc]
+4.5 +0.1 73 0 0 1020.8 1003.6 0.0
ЮЗ 4-10
{10}
16 км 10/4 600 м
[Sc Ac As]
+5.0 -0.2 69 +1 +1 1020.3 1003.2
ЮЗ 5-11
{11}
16 км 10/4 600 м
[Sc Ac As]
+5.2 -0.8 65 +1 +1 1019.6 1002.5
ЮЗ 5-11
{12}
18 км 10/10 600 м
[Sc]
+4.7 -0.5 69 0 0 1019.6 1002.5
ЮЗ 4-10
{12}
12 км 9/9 600 м
[Sc]
+3.5 +1.7 88 -1 -1 1019.8 1002.6
ЮЗ 4 15 км в посл. час дождь 10/10 600 м
[Sc]
+4.5 +1.3 80 0 0 1019.7 1002.5
З 5
{12}
14 км слаб. дождь 10/10 600 м
[Sc]
+5.3 +2.5 82 +1 +1 1019.8 1002.7 +1.6 +5.3 0.0
ЮЗ 3
{9}
13 км в посл. час дождь 10/10 600 м
[Sc]
+5.4 +2.6 82 +2 +2 1019.8 1002.7
З 4-9
{10}
15 км 9/9 600 м
[Sc]
+6.0 +2.8 80 +2 +2 1020.5 1003.4
З 4
{10}
15 км {дождь} 10/10 600 м
[Sc]
+6.0 +3.0 81 +2 +2 1020.8 1003.7
ЮЗ 3
{8}
11 км 8/8 600 м
[Sc]
+5.6 +2.9 83 +2 +2 1021.0 1003.9
ЮЗ 3-8
{9}
12 км 6/6 600 м
[Sc]
+5.0 +2.9 86 +2 +2 1021.1 1004.0
ЮЗ 3
{10}
12 км {дождь} 9/9 600 м
[Sc]
+4.7 +2.9 88 +1 +1 1021.4 1004.2 0.0
ЮЗ 3 13 км 9/9 600 м
[Sc]
+4.4 +2.9 90 +1 +1 1021.4 1004.2
ЮЗ 3 13 км 8/8 600 м
[Sc]
+4.9 +3.4 90 +1 +1 1021.3 1004.1
ЮЗ 3 11 км 8/8 600 м
[Sc]
+4.4 +2.9 90 +1 +1 1021.0 1003.8
ЮЗ 3 12 км 9/9 600 м
[Sc]
+4.3 +3.0 91 +1 +1 1020.9 1003.7
ЮЗ 3 11 км 9/9 600 м
[Sc]
+4.6 +3.1 90 +1 +1 1021.0 1003.8
ЮЗ 4 11 км 6/5 600 м
[Sc Ac trans]
+4.2 +2.7 90 -0 -0 1020.8 1003.6 +4.2 +6.0 0.0 0.0
ЮЗ 3 9000 м дымка 9/9 600 м
[Cb calv]
+4.2 +2.5 89 0 0 1020.9 1003.7
ЮЗ 4 11 км 9/4 600 м
[Sc Ac trans]
+5.3 +3.1 86 +1 +1 1020.4 1003.3
ЮЗ 4
{9}
10 км 10/10 600 м
[Sc]
+5.4 +3.1 85 +1 +1 1020.6 1003.5
ЮЗ 4 11 км 9/6 600 м
[Sc Ac trans]
+6.1 +3.3 82 +2 +3 1020.1 1003.0
ЮЗ 5
{9}
12 км 8/4 600 м
[Cb calv Ac trans]
+6.5 +3.1 79 +2 +3 1019.5 1002.5
ЮЗ 4
{9}
13 км 10/10 600 м
[Sc]
+6.2 +3.2 81 +2 +2 1019.3 1002.3
З 2
{8}
6000 м слаб. дождь 10/10 600 м
[Sc]
+5.4 +3.9 90 +3 +3 1019.3 1002.2
ЮЗ 3
{8}
8000 м в посл. час дождь 9/8 600 м
[Sc Ac trans]
+5.2 +3.5 89 +2 +2 1019.3 1002.2
ЮЗ 2
{8}
8000 м дымка {дождь} 9/4 600 м
[Cb calv Ac As]
+4.7 +3.4 91 +2 +2 1019.3 1002.2
ЮЗ 3 6000 м слаб. ливневой дождь 9/9 600 м
[Cb cap]
+5.2 +3.7 90 +2 +2 1019.6 1002.5
З 2
{11}
8000 м в посл. час ливневой дождь 6/6 600 м
[Cb cap]
+4.7 +3.5 92 +2 +2 1019.9 1002.8
З 3
{11}
7000 м в посл. час ливневой дождь 9/9 600 м
[Sc]
+5.2 +3.8 91 +2 +2 1020.5 1003.4 +3.8 +6.7 1
З 4 12 км в посл. час ливневой дождь 9/9 600 м
[Sc]
+5.2 +3.4 88 +1 +1 1020.6 1003.5
З 4 11 км в посл. час ливневой дождь 9/9 600 м
[Cb cap]
+5.3 +3.3 87 +1 +1 1021.1 1004.0
З 5 12 км слаб. ливневой дождь 9/9 600 м
[Cb cap]
+5.4 +3.2 86 +1 +1 1021.3 1004.2
З 5
{10}
14 км в посл. час ливневой дождь 10/10 600 м
[Cb cap]
+5.6 +3.1 84 +1 +1 1021.8 1004.7
З 4 16 км слаб. ливневой дождь 9/9 600 м
[Cb cap]
+5.5 +3.3 86 +1 +1 1022.3 1005.2
З 4
{10}
15 км слаб. ливневой дождь 9/9 600 м
[Cb cap]
+5.4 +3.2 86 +1 +1 1022.7 1005.5 0.0
З 4 22 км в посл. час ливневой дождь 9/9 600 м
[Sc]
+5.6 +3.3 85 +2 +2 1023.3 1006.2
З 3 22 км 9/9 600 м
[Sc]
+5.6 +3.3 85 +2 +2 1023.5 1006.3
З 3 27 км {ливн. дождь} 9/9 600 м
[Sc]
+5.6 +3.1 84 +2 +2 1023.6 1006.4
З 3 27 км 9/9 600 м
[Sc]
+5.5 +3.2 85 +2 +2 1023.9 1006.7
З 3 19 км 10/10 600 м
[Sc]
+5.5 +3.2 85 +2 +2 1024.3 1007.1
З 3 17 км {ливн. дождь} 10/10 300 м
[Sc]
+5.6 +3.1 84 +2 +2 1024.8 1007.6 +5.2 +5.8 0.0 1.2
З 3 13 км 9/9 300 м
[Sc]
+5.6 +3.1 84 +2 +2 1025.2 1008.0
З 4 14 км 9/9 300 м
[Sc]
+5.7 +3.2 84 +2 +2 1025.4 1008.2
З 4 15 км 9/9 600 м
[Sc]
+5.8 +3.5 85 +2 +2 1025.8 1008.6
З 4 14 км 9/9 600 м
[Sc]
+6.3 +3.5 82 +3 +3 1025.3 1008.2
З 4
{9}
15 км 9/8 600 м
[Sc Ac trans]
+6.9 +3.1 77 +3 +4 1025.0 1007.9
З 4
{9}
16 км 9/8 600 м
[Cb calv Ac trans]
+7.0 +2.9 75 +4 +4 1025.0 1007.9
З 4 15 км 9/9 600 м
[Sc]
+6.7 +2.8 76 +3 +3 1024.7 1007.6
З 3 11 км 9/9 300 м
[Sc]
+6.6 +2.9 77 +4 +4 1024.9 1007.8
З 2 12 км 9/9 300 м
[Sc]
+6.0 +2.3 77 +4 +4 1024.7 1007.6
ЮЗ 2 8000 м дымка 10/4 600 м
[Sc As trans]
+5.5 +2.1 79 +3 +3 1024.4 1007.2
ЮЗ 3 7000 м дымка 9/0
[Ac As]
+5.3 +2.6 83 +2 +2 1024.3 1007.1
ЮЗ 2 8000 м дымка 9/0
[Ac As]
+5.4 +2.7 83 +3 +3 1023.9 1006.7 +5.3 +7.3
ЮЗ 3 10 км 9/3 600 м
[Sc Ac As]
+5.8 +2.6 80 +3 +3 1023.5 1006.4
ЮЗ 2 10 км 10/0
[Ac As]
+5.8 +2.6 80 +3 +3 1023.5 1006.4
З 3 12 км 10/0
[Ac As]
+6.0 +2.3 77 +3 +3 1023.6 1006.5
З 3 17 км 10/10 600 м
[Sc]
+5.9 +1.8 75 +3 +3 1023.5 1006.4
З 4 17 км 10/10 600 м
[Sc]
+5.7 +1.6 75 +2 +2 1023.2 1006.1
З 3 18 км 10/10 600 м
[Sc]
+5.4 +1.3 75 +2 +2 1023.0 1005.8
З 3 17 км 9/9 600 м
[Sc]
+5.2 +1.5 77 +2 +2 1023.1 1005.9
ЮЗ 2 16 км 9/9 600 м
[Sc]
+5.0 +1.3 77 +3 +3 1022.8 1005.6
З 3 12 км 6/6 600 м
[Sc]
+4.1 +1.0 80 +1 +1 1023.0 1005.8
З 2 12 км 9/9 600 м
[Sc]
+3.3 +0.5 82 0 0 1023.4 1006.1
ЮЗ 2 11 км 9/9 600 м
[Sc]
+2.8 +0.2 83 -0 -0 1023.0 1005.7
ЮЗ 3 10 км 10/0
[Ac As]
+2.9 0.0 81 -1 -1 1023.0 1005.7 +2.8 +6.0
З 2 10 км 9/0
[Ac As]
+3.0 +0.1 81 0 0 1023.5 1006.2
З 2 10 км 9/0
[Ac As]
+3.0 -0.1 80 0 0 1024.0 1006.7
З 3 13 км 8/5 600 м
[Sc Ac trans]
+3.3 -0.2 78 -1 -0 1024.2 1006.9
З 3 14 км 5/3 600 м
[Sc Ac trans Ci sp]
+4.7 +0.6 75 +1 +2 1023.7 1006.5
З 3 16 км 4/0
[Ac trans Ci sp]
+6.1 +0.8 69 +3 +4 1023.4 1006.3
ЮЗ 3 15 км 4/0
[Ac trans Ci sp]
+6.7 +0.8 66 +4 +5 1023.3 1006.2
ЮЗ 2 10 км 4/0
[Ac trans Ci sp]
+5.9 +0.2 67 +4 +4 1023.3 1006.2
Ю 2 7000 м дым 3/0
[Ac trans Ci fib]
+4.4 +0.5 76 +2 +2 1023.4 1006.2
Ю 1 8000 м дым 3/0
[Ci fib]
+2.2 -0.4 83 +1 +1 1023.6 1006.2
Ю 1 7000 м дым 1/0
[Ci fib]
+0.3 -1.0 91 -2 -2 1023.8 1006.3
Ю 1 4000 м дымка 1/0
[Ci fib]
-0.2 -1.3 92 -2 -2 1023.9 1006.4
Ю 1 3500 м дымка ясно -0.8 -1.6 94 -3 -3 1024.2 1006.6 -1.0 +7.1
ЮВ 2 3500 м дымка ясно -1.2 -1.8 96 -5 -5 1024.2 1006.6
Ю 2 3600 м дымка ясно -1.2 -1.8 96 -5 -5 1024.1 1006.5
Ю 2 3700 м дымка 1/0
[Ci fib]
-1.4 -2.0 96 -5 -5 1023.9 1006.3
Ю 2 3500 м дымка 1/0
[Ci fib]
-1.6 -2.2 96 -6 -6 1024.1 1006.5
Ю 2 3400 м дымка ясно -1.9 -2.3 97 -6 -6 1024.0 1006.4
ЮВ 2 3300 м дымка ясно -2.5 -2.9 97 -7 -7 1023.8 1006.1
Ю 2 2600 м дымка ясно -2.6 -3.0 97 -7 -7 1023.6 1005.9
Ю 2 2600 м дымка ясно -2.9 -3.3 97 -7 -7 1023.4 1005.7
Ю 2 2800 м дымка ясно -3.0 -3.4 97 -7 -7 1023.0 1005.3
Ю 2 3000 м дымка ясно -2.8 -3.2 97 -7 -7 1023.0 1005.3
Ю 2 2900 м дымка ясно -2.9 -3.3 97 -7 -7 1022.8 1005.1
Ю 2 2700 м дымка 1/0
[Ci fib]
-3.0 -3.5 96 -7 -7 1023.0 1005.3 -3.2 -0.8
Ю 2 2300 м дымка 5/0
[Cs]
-2.8 -3.3 96 -7 -7 1022.7 1005.0
ЮЗ 2 2900 м дымка 9/9 200 м
[St]
-1.6 -2.3 95 -6 -6 1022.7 1005.1
ЮЗ 2 3500 м дымка 9/9 200 м
[St]
-0.1 -1.4 91 -4 -4 1021.9 1004.4
ЮЗ 2 3900 м дымка 8/6 300 м
[Cu hum Ci fib]
+0.5 -1.1 89 -3 -3 1021.5 1004.1
ЮЗ 3 4500 м дымка 3/3 300 м
[Cu hum]
+1.6 -0.7 85 -3 -2 1021.3 1003.9
ЮЗ 3 4600 м дымка ясно +1.4 -1.0 84 -3 -3 1021.0 1003.6
Ю 3 4000 м дымка ясно +0.8 -1.0 88 -4 -4 1020.4 1003.0
ЮЗ 3 3600 м дымка ясно +0.1 -1.3 90 -5 -5 1020.2 1002.8
ЮЗ 3 2900 м дымка 10/10 200 м
[St]
-0.3 -1.4 92 -5 -5 1020.5 1003.0
ЮЗ 3 2400 м дымка 10/10 200 м
[St]
+0.1 -1.0 92 -5 -5 1020.1 1002.7
ЮЗ 2 2700 м дымка 10/10 200 м
[St]
+0.5 -0.6 92 -3 -3 1020.0 1002.6 -3.2 +1.7
ЮЗ 2 3000 м дымка 10/10 200 м
[St]
+0.8 -0.5 91 -3 -3 1019.7 1002.3
ЮЗ 2 2800 м дымка 10/10 200 м
[St]
+0.9 -0.3 92 -3 -3 1019.2 1001.8
ЮЗ 3 3000 м дымка 10/10 200 м
[St]
+1.3 0.0 91 -3 -3 1018.8 1001.5
ЮЗ 3 3300 м дымка 10/10 200 м
[St]
+1.7 +0.2 90 -3 -3 1018.6 1001.3
ЮЗ 2 3200 м дымка 10/10 200 м
[St]
+2.0 +0.5 90 -1 -1 1018.3 1001.0
ЮЗ 3 3200 м дымка 10/10 200 м
[St]
+2.0 +0.5 90 -2 -2 1017.7 1000.4
ЮЗ 3 2900 м дымка 10/10 200 м
[St]
+2.3 +1.0 91 -2 -2 1017.7 1000.4
ЮЗ 3 2700 м дымка 10/10 200 м
[St]
+2.4 +1.2 92 -2 -2 1017.5 1000.3
ЮЗ 3 2700 м дымка 10/10 200 м
[St]
+2.7 +1.7 93 -2 -2 1017.5 1000.3
З 3 2400 м слаб. морось 10/10 200 м
[St]
+3.1 +2.2 94 -1 -1 1017.6 1000.4
З 3 2200 м слаб. морось 10/10 100 м
[St]
+3.6 +2.9 95 -0 -0 1017.6 1000.4
З 3 2700 м в посл. час морось 10/10 100 м
[St]
+3.9 +3.3 96 -0 -0 1017.7 1000.5 +0.5 +3.9 0.0 0.0
З 3 3400 м дымка 10/10 200 м
[St]
+4.2 +3.3 94 0 0 1017.8 1000.7
З 3 3800 м дымка 10/10 200 м
[St]
+4.5 +3.3 92 +1 +1 1018.0 1000.9
З 3 4200 м дымка 10/10 300 м
[Sc]
+4.8 +3.6 92 +1 +1 1018.2 1001.1
З 4 6000 м дымка 10/10 300 м
[Sc]
+5.4 +3.6 88 +1 +1 1018.0 1000.9
З 4 6000 м дымка 10/10 300 м
[Sc]
+5.7 +3.7 87 +2 +2 1017.9 1000.8
З 4 6000 м слаб. дождь 10/10 300 м
[Sc]
+5.7 +4.0 89 +2 +2 1018.0 1000.9 0.0
З 3 5000 м слаб. дождь 10/10 300 м
[Sc]
+5.5 +4.1 91 +2 +2 1017.9 1000.8
З 3 6000 м в посл. час дождь 10/10 300 м
[Sc]
+5.3 +3.9 91 +2 +2 1017.9 1000.8
З 2 5000 м в посл. час ливневой дождь 10/10 300 м
[Sc]
+5.1 +3.9 92 +2 +2 1018.1 1001.0
З 3 5000 м дымка 9/9 300 м
[Sc]
+4.9 +3.6 91 +1 +1 1018.0 1000.9
З 3 8000 м дымка 10/10 600 м
[Sc]
+4.6 +3.1 90 +1 +1 1018.1 1001.0
З 2 6000 м дымка {ливн. дождь, дождь} 8/8 600 м
[Sc]
+4.2 +2.7 90 +1 +1 1017.8 1000.7 +3.9 +6.2 0.0
З 3 7000 м дымка 10/10 600 м
[Sc]
+4.4 +3.1 91 +1 +1 1017.8 1000.7
З 4 8000 м дымка 9/9 600 м
[Sc]
+4.4 +2.9 90 0 0 1017.8 1000.7
З 4 9000 м дымка 9/9 1000 м
[Sc]
+3.9 +2.4 90 -1 -1 1017.8 1000.6
З 2 11 км 9/9 1000 м
[Sc]
+3.6 +2.0 89 +1 +1 1017.5 1000.3
З 3 10 км 8/8 1000 м
[Sc]
+3.1 +1.8 91 -1 -1 1017.4 1000.2
З 3 19 км 9/9 1000 м
[Sc]
+3.2 +1.7 90 -1 -1 1017.3 1000.1
З 3 15 км 10/10 600 м
[Sc]
+3.1 +2.1 93 -1 -1 1017.2 1000.0
З 2 13 км в посл. час ливневой дождь 10/10 600 м
[Sc]
+2.7 +1.7 93 -1 -1 1017.1 999.9
З 3 6000 м слаб. ливневой дождь 10/10 600 м
[Cb cap]
+2.6 +1.9 95 -2 -2 1016.7 999.5
З 2 8000 м в посл. час ливневой дождь 10/10 600 м
[Cb cap]
+2.3 +1.7 96 -1 -1 1016.7 999.5
С 4 6000 м слаб. ливневой дождь со снегом 10/10 300 м
[Cb cap]
+1.5 +0.9 96 -4 -4 1017.3 1000.0
С 2 29 км в посл. час ливневой снег 9/9 600 м
[Sc]
+1.1 +0.5 96 -3 -3 1017.7 1000.4 +1.0 +4.5 2 1.7
С 2 13 км в посл. час ливневой дождь 9/9 300 м
[Cb cap]
+1.2 +0.8 97 -2 -2 1018.2 1000.9
С 3 40 км в посл. час ливневой дождь 9/9 300 м
[Cb cap]
+1.1 -0.1 92 -3 -3 1018.5 1001.2
С 5 40 км {ливн. снег} 9/9 300 м
[Sc]
+0.9 -0.9 88 -5 -5 1019.1 1001.7
С 4 45 км 8/6 300 м
[Cu Sc Ac trans]
+0.9 -1.8 82 -4 -4 1019.2 1001.8
С 3 40 км 9/9 300 м
[Cb cap]
+1.2 -2.6 76 -3 -3 1019.2 1001.8
С 3 50 км {ливн. снег} 9/9 300 м
[Sc]
+1.3 -2.1 78 -3 -3 1019.3 1002.0 0.0
С 3 50 км 9/9 600 м
[Sc]
+1.0 -2.8 76 -3 -3 1019.4 1002.0
СЗ 3 50 км 9/9 600 м
[Sc]
+0.7 -3.2 75 -4 -4 1019.8 1002.4
СЗ 2 50 км 9/9 600 м
[Sc]
+0.6 -3.0 77 -3 -3 1019.9 1002.5
СЗ 3 3200 м слаб. снег 10/6 600 м
[Sc As trans]
-0.2 -1.6 90 -5 -5 1020.1 1002.6
З 1 4900 м слаб. снег 10/8 300 м
[Sc As trans]
-0.5 -1.3 94 -3 -3 1020.1 1002.6
З 2 3500 м слаб. снег 10/6 300 м
[Sc As op]
-0.5 -1.2 95 -4 -4 1019.9 1002.4 -0.5 +1.8 0.0
З 1 3500 м слаб. снег 10/8 300 м
[Sc As op]
-0.4 -1.0 96 -3 -3 1019.9 1002.4
З 1 3200 м слаб. снег 10/6 300 м
[Sc As op]
-0.3 -0.7 97 -3 -3 1020.0 1002.5
ЮЗ 1 2500 м слаб. снег 10/10 300 м
[Sc]
-0.4 -0.8 97 -3 -3 1019.8 1002.3
ЮЗ 1 3900 м слаб. снег 10/10 300 м
[Sc]
-0.3 -0.7 97 -3 -3 1020.0 1002.5
штиль 0 4000 м в посл. час снег 10/10 300 м
[Sc]
-0.2 -0.6 97 -2 -2 1019.6 1002.2
штиль 0 4200 м дымка {снег} 10/10 300 м
[Sc]
-0.2 -0.6 97 -2 -2 1019.6 1002.2 0.3
штиль 0 5000 м дымка 10/10 300 м
[Sc]
-0.2 -0.6 97 -2 -2 1019.7 1002.3
В 1 7000 м дымка 10/10 300 м
[Sc]
0.0 -0.6 96 -2 -2 1019.8 1002.4
СВ 1 7000 м дымка 10/10 300 м
[Sc]
0.0 -0.6 96 -2 -2 1019.8 1002.4
СВ 2 12 км 10/10 600 м
[Sc]
-0.1 -1.0 94 -4 -4 1019.8 1002.4
СВ 3 17 км 10/10 600 м
[Sc]
-0.2 -1.6 90 -5 -5 1020.2 1002.7
С 2 26 км 10/10 600 м
[Sc]
-0.3 -1.6 91 -4 -4 1020.4 1002.9 -0.5 0.0 0.3 0.3 2
СЗ 1 20 км 10/10 600 м
[Sc]
-0.3 -2.4 86 -2 -2 1020.6 1003.1
С 2 35 км 10/10 300 м
[Sc]
-0.2 -1.9 88 -4 -4 1020.7 1003.2
С 2 23 км 10/10 300 м
[Sc]
0.0 -1.1 92 -4 -4 1020.9 1003.4
СЗ 2 23 км 8/6 300 м
[Cu med, cong Ac trans]
+0.3 -1.1 90 -3 -3 1020.6 1003.2
Местоположение метеостанции Тересполь (Польша): широта 52.07 долгота 23.62 высота над уровнем моря 137 м.
В архиве по умолчанию представлена погода в Тересполе за последнюю неделю. Архивные данные за месяц целиком и за предыдущие месяцы, начиная с января 2011 года, Вы можете получить, выбрав интересующий диапазон дат из раскрывающегося списка и нажав кнопку "Найти!".
*Определитесь, кто Вы:
Внимание! Время в таблицах - всемирное. Для получения местного времени необходимо прибавить поправку, которая равна 1 ч.
Смотрите также архив погоды в соседних городах и на ближайших метеорологических станциях:
Партнеры нашего сайта:      
Пояснения к столбцам:
  • Ветер - указаны скорость ветра в м/с - средняя за 10 мин, порывы в срок и между сроками (в фигурных скобках) и направление, откуда дует ветер: С - северный,
  • СВ - северо-восточный, В - восточный, ЮВ - юго-восточный, Ю - южный, ЮЗ - юго-западный, З - западный, СЗ - северо-западный.
  • Видимость - горизонтальная дальность видимости в метрах или километрах. При видимости от 1 до 10 км при отсутствии осадков обычно наблюдается дымка, при ухудшении видимости до 1 км и менее - туман. В сухую погоду видимость может ухудшаться дымом, пылью или мглою.
  • Явления - указаны атмосферные явления, наблюдавшиеся в срок или в последний час перед сроком; фигурными скобками обозначены явления, наблюдавшиеся между сроками (за 1-3 часа до срока); квадратными скобками обозначены град или гололедные отложения с указанием их диаметра в мм.
  • Облачность - указаны через наклонную черту общая и нижняя облачность в баллах и высота нижней границы облаков в метрах; квадратными скобками обозначены формы облаков: Ci - перистые, Cs - перисто-слоистые, Cc - перисто-кучевые, Ac - высококучевые, As - высокослоистые, Sc - слоисто-кучевые, Ns - слоисто-дождевые, Cu - кучевые, Cb - кучево-дождевые. Подробнее классификацию облаков см. в Атласе облаков (PDF).
  • T - Температура воздуха - температура, измеренная на высоте 2 м над землей.
  • Td - Температура точки росы - температура, при понижении до которой содержащийся в воздухе водяной пар достигнет насыщения.
  • f - Относительная влажность воздуха - влажноcть воздуха, измеренная на высоте 2 м над землей.
  • Te - Эффективная температура - температура, которую ощущает одетый по сезону человек в тени. Характеристика душности погоды. При расчете учитывается влияние влажности воздуха и скорости ветра на теплоощущения человека.
  • Tes - Эффективная температура на солнце - температура, которую ощущает человек, с поправкой на солнечный нагрев. Характеристика знойности погоды. Зависит от высоты солнца над горизонтом, облачности и скорости ветра. Ночью, в пасмурную погоду, а также при ветре 12 м/с и более поправка равна нулю.
  • P - Атмосферное давление - приведенное к уровню моря атмосферное давление.
  • Po - Атмосферное давление - измеренное на уровне метеостанции атмосферное давление.
  • Tmin - Минимальная температура - минимум температуры воздуха на высоте 2 м над землей.
  • Tmax - Максимальная температура - максимум температуры воздуха на высоте 2 м над землей.
  • R - Количество осадков - Количество выпавших осадков за период времени, мм. При наведении курсора мыши на число - период времени, за который выпало указанное количество осадков.
  • R24 - Количество осадков - Количество выпавших осадков за 24 часа, мм.
  • S - Снежный покров - Высота снежного покрова, см. При наведении курсора мыши на число - состояние снежного покрова и степень покрытия местности в баллах.